Manistique, MI

6:11 AM EDT on May 27, 2018 (GMT -0400)
Schoolcraft County

Weather History for KISQ - July, 2013

Change the Weather History Date:

Tuesday, July 16, 2013

  Actual Average Record
Temperature  
Mean Temperature 72 °F -  
Max Temperature 80 °F 74 °F 88 °F (1980)
Min Temperature 64 °F 54 °F 38 °F (1973)
Cooling Degree Days 7    
Growing Degree Days 22 (Base 50)    
Moisture  
Dew Point 68 °F    
Average Humidity 84    
Maximum Humidity 98    
Minimum Humidity 58    
Precipitation  
Precipitation 0.00 in - - ()
Sea Level Pressure  
Sea Level Pressure 30.23 in    
Wind  
Wind Speed 5 mph (SSW)    
Max Wind Speed 13 mph    
Max Gust Speed 21 mph    
Visibility 10 miles    
Events      
Averages and records for this station are not official NWS values.
T = Trace of Precipitation, MM = Missing Value Source: NWS Daily Summary

Daily Weather History Graph

Daily Weather History Graph

Search for Another Location

Airport or City:

Astronomy

Jul. 16, 2013 Rise Set
Actual Time 6:09 AM EDT 9:31 PM EDT
Civil Twilight 5:33 AM EDT 10:07 PM EDT
Nautical Twilight 4:45 AM EDT 10:55 PM EDT
Astronomical Twilight 3:43 AM EDT 11:56 PM EDT
Moon 3:04 PM EDT (7/16) 12:49 AM EDT (7/16)
Length of Visible Light 16h 34m
Length of Day
15h 21m
First Quarter, 56% of the Moon is Illuminated
Jul 16
First Quarter
Jul 22
Full
Jul 29
Last Quarter
Aug 6
New
Aug 14
First Quarter

Hourly Weather History & Observations

Time (EDT) Temp. Heat Index Dew Point Humidity Pressure Visibility Wind Dir Wind Speed Gust Speed Precip Events Conditions
12:14 AM 65.3 °F - 64.0 °F 96% 30.26 in 10.0 mi Calm Calm - N/A   Clear
12:35 AM 65.5 °F - 63.7 °F 94% 30.26 in 10.0 mi Calm Calm - N/A   Clear
12:55 AM 66.2 °F - 64.2 °F 93% 30.26 in 10.0 mi Calm Calm - N/A   Clear
1:14 AM 67.1 °F - 65.3 °F 94% 30.26 in 10.0 mi SE 3.5 mph - N/A   Clear
1:35 AM 68.0 °F - 66.2 °F 94% 30.26 in 10.0 mi Calm Calm - N/A   Clear
1:55 AM 68.0 °F - 65.7 °F 92% 30.26 in 10.0 mi Calm Calm - N/A   Clear
2:15 AM 67.8 °F - 65.3 °F 92% 30.26 in 10.0 mi SSE 3.5 mph - N/A   Clear
2:35 AM 68.0 °F - 65.3 °F 91% 30.26 in 10.0 mi SSE 4.6 mph - N/A   Clear
2:54 AM 67.8 °F - 65.5 °F 92% 30.26 in 10.0 mi SSE 3.5 mph - N/A   Clear
3:15 AM 67.5 °F - 65.5 °F 93% 30.26 in 10.0 mi Calm Calm - N/A   Clear
3:35 AM 67.6 °F - 65.7 °F 93% 30.27 in 10.0 mi SSE 3.5 mph - N/A   Clear
3:54 AM 67.6 °F - 65.7 °F 93% 30.26 in 10.0 mi Calm Calm - N/A   Clear
4:15 AM 66.7 °F - 65.5 °F 96% 30.26 in 10.0 mi Calm Calm - N/A   Clear
4:35 AM 64.8 °F - 63.9 °F 97% 30.26 in 5.0 mi Calm Calm - N/A   Scattered Clouds
4:55 AM 64.6 °F - 63.9 °F 98% 30.26 in 7.0 mi Calm Calm - N/A   Scattered Clouds
5:15 AM 65.1 °F - 64.4 °F 98% 30.26 in 7.0 mi Calm Calm - N/A   Clear
5:34 AM 66.0 °F - 65.1 °F 97% 30.27 in 7.0 mi South 4.6 mph - N/A   Clear
5:55 AM 68.5 °F - 66.4 °F 93% 30.26 in 10.0 mi South 4.6 mph - N/A   Clear
6:15 AM 68.2 °F - 66.2 °F 93% 30.26 in 10.0 mi South 3.5 mph - N/A   Clear
6:34 AM 66.0 °F - 64.8 °F 96% 30.26 in 7.0 mi South 3.5 mph - N/A   Clear
6:55 AM 66.0 °F - 64.6 °F 95% 30.26 in 7.0 mi Calm Calm - N/A   Clear
7:15 AM 70.7 °F - 67.6 °F 90% 30.27 in 10.0 mi South 4.6 mph - N/A   Mostly Cloudy
7:34 AM 71.6 °F - 67.1 °F 86% 30.26 in 10.0 mi South 3.5 mph - N/A   Scattered Clouds
7:55 AM 72.9 °F - 67.1 °F 82% 30.27 in 10.0 mi South 5.8 mph - N/A   Clear
8:15 AM 74.1 °F - 66.9 °F 78% 30.27 in 10.0 mi SSW 5.8 mph - N/A   Clear
8:35 AM 75.4 °F - 66.7 °F 74% 30.27 in 10.0 mi SSW 6.9 mph - N/A   Clear
8:55 AM 76.3 °F - 67.1 °F 73% 30.27 in 10.0 mi SSW 5.8 mph - N/A   Clear
9:14 AM 76.8 °F - 66.6 °F 70% 30.27 in 10.0 mi SW 5.8 mph - N/A   Clear
9:35 AM 78.4 °F - 67.1 °F 68% 30.27 in 10.0 mi SSW 6.9 mph - N/A   Clear
9:55 AM 78.4 °F - 66.7 °F 67% 30.26 in 10.0 mi South 9.2 mph - N/A   Clear
10:15 AM 79.2 °F - 66.4 °F 65% 30.26 in 10.0 mi SSW 8.1 mph - N/A   Clear
10:35 AM 80.6 °F 82.3 °F 64.6 °F 58% 30.26 in 10.0 mi SSW 8.1 mph - N/A   Clear
10:54 AM 80.2 °F 82.1 °F 65.3 °F 60% 30.26 in 10.0 mi South 6.9 mph - N/A   Clear
11:15 AM 79.7 °F - 66.9 °F 65% 30.26 in 10.0 mi South 9.2 mph - N/A   Clear
11:35 AM 79.0 °F - 66.9 °F 66% 30.25 in 10.0 mi South 9.2 mph - N/A   Clear
11:54 AM 79.2 °F - 67.1 °F 66% 30.25 in 10.0 mi South 10.4 mph - N/A   Clear
12:15 PM 79.2 °F - 67.3 °F 67% 30.25 in 10.0 mi South 11.5 mph 16.1 mph N/A   Clear
12:35 PM 79.0 °F - 68.4 °F 70% 30.24 in 10.0 mi South 11.5 mph 16.1 mph N/A   Clear
12:54 PM 78.4 °F - 68.2 °F 71% 30.24 in 10.0 mi South 10.4 mph 17.3 mph N/A   Clear
1:15 PM 79.0 °F - 68.9 °F 71% 30.24 in 10.0 mi South 11.5 mph - N/A   Clear
1:35 PM 79.3 °F - 69.3 °F 71% 30.24 in 10.0 mi South 11.5 mph 17.3 mph N/A   Clear
1:55 PM 79.0 °F - 69.8 °F 73% 30.24 in 10.0 mi SSW 11.5 mph 19.6 mph N/A   Clear
2:15 PM 79.3 °F - 70.2 °F 73% 30.23 in 10.0 mi SSW 10.4 mph 17.3 mph N/A   Clear
2:34 PM 79.0 °F - 70.2 °F 74% 30.23 in 10.0 mi SSW 12.7 mph 18.4 mph N/A   Clear
2:55 PM 78.6 °F - 70.2 °F 75% 30.23 in 10.0 mi SSW 9.2 mph 20.7 mph N/A   Clear
3:15 PM 76.6 °F - 70.0 °F 80% 30.22 in 10.0 mi SSW 9.2 mph - N/A   Clear
3:34 PM 75.7 °F - 70.2 °F 83% 30.21 in 10.0 mi South 10.4 mph - N/A   Clear
3:55 PM 77.5 °F - 70.7 °F 79% 30.21 in 10.0 mi SSW 8.1 mph - N/A   Clear
4:15 PM 76.1 °F - 70.7 °F 83% 30.20 in 10.0 mi SSW 10.4 mph 18.4 mph N/A   Clear
4:34 PM 75.2 °F - 70.7 °F 86% 30.21 in 10.0 mi SSW 11.5 mph - N/A   Scattered Clouds
4:55 PM 76.8 °F - 71.4 °F 83% 30.21 in 10.0 mi SSW 10.4 mph 17.3 mph N/A   Clear
5:15 PM 77.2 °F - 71.4 °F 82% 30.20 in 10.0 mi SSW 11.5 mph 16.1 mph N/A   Clear
5:35 PM 77.0 °F - 71.2 °F 82% 30.20 in 10.0 mi SSW 8.1 mph - N/A   Clear
5:55 PM 75.9 °F - 70.9 °F 84% 30.20 in 10.0 mi South 8.1 mph - N/A   Clear
6:14 PM 77.4 °F - 71.4 °F 82% 30.20 in 10.0 mi SSW 6.9 mph - N/A   Clear
6:35 PM 76.8 °F - 71.2 °F 83% 30.19 in 10.0 mi SW 9.2 mph 16.1 mph N/A   Clear
6:55 PM 76.6 °F - 71.2 °F 83% 30.19 in 10.0 mi SSW 9.2 mph 17.3 mph N/A   Clear
7:14 PM 75.4 °F - 71.1 °F 86% 30.18 in 10.0 mi SSW 8.1 mph - N/A   Clear
7:35 PM 75.4 °F - 70.9 °F 86% 30.18 in 10.0 mi SSW 8.1 mph - N/A   Clear
7:55 PM 75.0 °F - 70.9 °F 87% 30.19 in 10.0 mi SSW 10.4 mph 16.1 mph N/A   Clear
8:14 PM 74.8 °F - 70.7 °F 87% 30.18 in 10.0 mi SSW 9.2 mph - N/A   Clear
8:35 PM 74.7 °F - 70.7 °F 87% 30.18 in 10.0 mi SW 8.1 mph 16.1 mph N/A   Clear
8:55 PM 73.4 °F - 70.3 °F 90% 30.18 in 10.0 mi SW 9.2 mph - N/A   Clear
9:14 PM 72.9 °F - 70.2 °F 91% 30.17 in 10.0 mi SSW 8.1 mph - N/A   Clear
9:35 PM 72.5 °F - 70.3 °F 93% 30.16 in 10.0 mi SSW 9.2 mph 16.1 mph N/A   Clear
9:54 PM 72.5 °F - 70.3 °F 93% 30.17 in 10.0 mi SSW 8.1 mph - N/A   Clear
10:15 PM 72.5 °F - 70.7 °F 94% 30.18 in 10.0 mi SW 10.4 mph - N/A   Clear
10:35 PM 72.5 °F - 70.5 °F 93% 30.18 in 10.0 mi SSW 12.7 mph 16.1 mph N/A   Clear
10:54 PM 72.7 °F - 70.7 °F 93% 30.18 in 10.0 mi SSW 9.2 mph 16.1 mph N/A   Clear
11:15 PM 71.8 °F - 70.0 °F 94% 30.17 in 7.0 mi SSW 6.9 mph - N/A   Clear
11:35 PM 71.8 °F - 70.0 °F 94% 30.18 in 7.0 mi SSW 6.9 mph - N/A   Clear
11:54 PM 72.7 °F - 70.9 °F 94% 30.18 in 10.0 mi SSW 8.1 mph - N/A   Clear